"Time","Temp","Dewpoint","Humidity","Pressure","Direction","Speed","Gust","Precip","PrecipRate"
"09:24:58","73.1","67.9","83.6","29.69","167","1.5","3.6","0.00","0.00"
"11:19:59","72.7","69.2","88.7","29.71","294","4","15","0.01","0.01"
"11:24:58","72.3","69","89.5","29.71","322","3.3","7.2","0.02","0.01"
"11:29:58","71.8","69","90.9","29.71","229","2.8","7.2","0.03","0.03"
"11:34:57","71.5","68.9","91.6","29.70","276","2.3","5.8","0.03","0.03"
"11:39:58","71.4","69.1","92.5","29.70","233","1.7","3.6","0.03","0.03"
"11:44:58","71.3","69.2","93","29.70","204","1.6","3.6","0.03","0.03"
"11:49:57","71.3","69.2","93","29.70","234","1.7","6","0.03","0.03"
"11:54:56","71.3","69.2","93","29.70","281","1.7","8.4","0.03","0.03"
"11:59:59","71.2","69.1","93","29.71","276","1.4","4.8","0.03","0.03"
"12:04:58","71.2","69.2","93.3","29.71","290","1.1","4.8","0.04","0.04"
"12:09:57","71.3","69.5","93.9","29.71","258","2.1","6","0.04","0.04"
"12:14:58","71.6","69.9","94.3","29.71","275","1.6","6","0.04","0.04"
"12:19:57","71.7","69.7","93.3","29.71","307","2.1","6","0.04","0.04"
"12:24:56","71.7","69.6","93","29.71","309","1.2","4.8","0.04","0.03"
"12:29:56","71.8","69.9","93.7","29.71","309","0.7","6","0.04","0.02"
"12:34:59","71.9","69.8","93","29.71","309","1.7","5.8","0.04","0.01"
"12:39:56","72","69.8","92.7","29.71","289","1.6","6","0.04","0.01"
"12:44:56","71.9","69.1","91","29.71","325","3.6","12","0.04","0.01"
"12:49:59","71.9","69.1","90.9","29.71","346","4.7","15","0.04","0.01"
"12:54:58","71.7","68.5","89.4","29.71","317","2.7","8.1","0.04","0.01"
"12:59:57","71.6","67.9","88","29.71","337","3.6","13.2","0.04","0.01"
"13:04:56","71.8","68.1","88.3","29.71","156","1.2","6","0.04","0.01"
"13:09:59","71.9","67.4","85.7","29.71","347","2.9","8.4","0.04","0.00"
"13:14:56","72.2","67.5","85.3","29.72","297","1.1","4.8","0.04","0.00"
"13:19:59","72.6","67.5","84.2","29.72","333","2.5","12","0.04","0.00"
"13:24:59","73.1","66.3","79.4","29.72","332","5.4","19.6","0.04","0.00"
"13:29:58","73","65.4","76.9","29.72","336","3.9","12","0.04","0.00"
"13:34:58","73","65.3","76.6","29.71","346","3.8","9.6","0.04","0.00"
"13:39:58","73.6","66.1","77.7","29.71","331","3.9","10.8","0.04","0.00"
"13:44:58","74.3","66.2","75.9","29.71","345","3.2","8.4","0.04","0.00"
"13:49:57","74.3","65.4","73.8","29.71","341","1.7","8.4","0.04","0.00"
"13:54:57","74","65.1","73.8","29.71","342","2.2","5.8","0.04","0.00"
"13:59:56","73.9","65.6","75.1","29.71","346","3.5","8.4","0.04","0.00"
"14:04:59","74","65.3","74","29.71","348","3.6","10.8","0.04","0.00"
"14:09:57","74","64.9","73.1","29.71","335","4","10.8","0.04","0.00"
"14:14:59","74.2","65","73.1","29.71","258","1.9","5.8","0.04","0.00"
"14:19:58","74.3","64.9","72.5","29.71","282","2.7","7.2","0.04","0.00"
"14:24:57","74.6","64.9","71.8","29.71","303","5.5","21.6","0.04","0.00"
"14:29:56","75.1","61.5","62.7","29.72","332","7.1","21.9","0.04","0.00"
"14:34:59","75.6","60.1","58.7","29.72","296","6.9","21.9","0.04","0.00"
"14:39:56","75.8","58.9","55.8","29.72","312","7.2","16.1","0.04","0.00"
"14:44:56","75.8","59.2","56.4","29.72","324","7.5","20.7","0.04","0.00"
"14:49:57","75.9","58.9","55.8","29.71","327","7.8","21.6","0.04","0.00"
"14:54:58","75.9","59","55.7","29.71","300","6.9","20.7","0.04","0.00"
"14:59:59","76.1","59.1","55.7","29.71","320","5.4","18.4","0.04","0.00"
"15:04:58","76.3","59.5","56.1","29.71","330","6.9","18.4","0.04","0.00"
"15:09:57","76.5","57.7","52.5","29.71","298","7.3","17.3","0.04","0.00"
"15:14:56","76.4","56.6","50.4","29.71","286","7.3","17.3","0.04","0.00"
"15:19:56","76.5","56.9","50.8","29.71","296","6.3","28.8","0.04","0.00"
"15:24:58","76.4","55.7","48.7","29.71","296","7.5","28.8","0.04","0.00"
"15:29:59","76.3","55.9","49.3","29.71","303","7.8","21.9","0.04","0.00"
"15:34:56","76.2","53.7","45.6","29.71","326","9.6","28.8","0.04","0.00"
"15:39:59","76","53","44.8","29.71","301","9.3","24","0.04","0.00"
"15:44:56","75.8","52.6","44.6","29.71","306","10.6","25.3","0.04","0.00"
"15:49:59","75.6","52.9","45.2","29.71","318","8.5","25.3","0.04","0.00"
"15:54:58","75.5","52.9","45.5","29.71","303","8.9","23","0.04","0.00"
"15:59:57","75.7","52.9","45.3","29.72","310","8.8","19.6","0.04","0.00"
"16:04:59","75.8","53.9","46.7","29.72","289","6.2","18.4","0.04","0.00"
"16:09:58","76","53.6","45.9","29.72","294","7","17.3","0.04","0.00"
"16:14:58","76","53.8","46.3","29.73","312","7.1","15","0.04","0.00"
"16:19:57","76.1","54.4","47","29.73","312","5.3","16.1","0.04","0.00"
"16:24:56","76.2","54.5","47","29.73","323","5.5","15","0.04","0.00"
"16:29:56","76.3","54.9","47.6","29.73","293","6.1","17.3","0.04","0.00"
"16:34:59","75.5","53.7","46.7","29.72","289","6.2","17.3","0.04","0.00"
"16:39:59","74.6","53.2","47.4","29.72","299","5.8","21.9","0.04","0.00"
"16:44:59","73.8","53.3","48.8","29.73","284","6.1","18.4","0.04","0.00"
"16:49:58","73.9","53.5","49","29.73","309","6.8","19.2","0.04","0.00"
"16:54:59","74.4","54.3","49.8","29.73","322","6.7","18.4","0.04","0.00"
"16:59:58","74.8","55.5","51","29.74","342","5.5","17.3","0.04","0.00"
"17:04:56","75","55.4","50.6","29.74","338","6.2","19.6","0.04","0.00"
"17:09:59","74.9","56.1","52","29.74","349","5.7","16.1","0.04","0.00"
"17:14:56","74.6","55.3","51","29.74","323","6.5","17.3","0.04","0.00"
"17:19:59","74.2","53.8","49.1","29.74","325","7.8","19.6","0.04","0.00"
"17:24:58","73.7","52","46.6","29.74","317","6.2","24.2","0.04","0.00"
"17:29:57","73.7","52.2","47","29.75","308","5.8","17.3","0.04","0.00"
"17:34:57","73.5","52.1","47.2","29.75","294","6.3","17.3","0.04","0.00"
"17:39:57","73.1","51.5","46.8","29.75","301","7.1","20.7","0.04","0.00"
"17:44:56","72.9","51.6","47.1","29.75","289","4.6","10.4","0.04","0.00"
"17:49:56","72.7","52","48.2","29.75","289","4.9","17.3","0.04","0.00"
"17:54:59","72.4","52","48.7","29.75","339","4.2","16.1","0.04","0.00"
"17:59:59","72","52.4","50.1","29.76","344","5.1","18.4","0.04","0.00"
"18:04:57","71.4","52.5","51.2","29.76","338","4.8","16.1","0.04","0.00"
"18:09:56","70.7","52.4","52.3","29.76","294","4.4","15","0.04","0.00"
"18:14:57","70.1","52","52.7","29.77","321","5.7","17.3","0.04","0.00"
"18:19:57","69.5","52","53.8","29.77","314","5.4","20.4","0.04","0.00"
"18:24:56","69.1","51.3","53.2","29.77","319","7.8","20.7","0.04","0.00"
"18:29:55","68.9","51.4","53.8","29.78","318","6.9","18.4","0.04","0.00"
"18:34:58","68.6","51.3","54","29.78","322","6.4","29","0.04","0.00"
"18:39:59","68.4","51.6","54.9","29.78","307","5.5","17.3","0.04","0.00"
"18:44:59","68.3","51.5","55.2","29.79","306","4.8","16.1","0.04","0.00"
"18:49:59","68","51.3","55.2","29.79","285","4.6","16.1","0.04","0.00"
"18:54:56","67.8","51.4","55.8","29.79","299","4.2","15.6","0.04","0.00"
"18:59:59","67.6","51.3","55.9","29.80","314","5.3","16.1","0.04","0.00"
"19:04:58","67.5","51.3","56.1","29.80","323","5.7","19.6","0.04","0.00"
"19:09:57","67.4","50.8","55.2","29.80","322","5.3","17.3","0.04","0.00"
"19:14:59","67.3","51","55.8","29.81","298","3.7","9.6","0.04","0.00"
"19:19:59","67.1","50.6","55.5","29.81","326","4.5","10.8","0.04","0.00"
"19:24:59","66.9","50.2","54.8","29.81","327","4.2","9.2","0.04","0.00"
"19:29:59","66.7","49.1","53.3","29.82","311","5.5","16.1","0.04","0.00"
"19:34:59","66.4","48.8","53.2","29.82","297","3.4","13.2","0.04","0.00"
"19:39:56","66.1","48","52.1","29.82","295","5.8","16.1","0.04","0.00"
"19:44:56","65.7","46.8","50.5","29.83","324","6","19.6","0.04","0.00"
"19:49:56","65.4","46.4","50.3","29.83","304","6.3","19.6","0.04","0.00"
"19:54:56","65","46.3","50.8","29.83","299","3.6","7.2","0.04","0.00"
"19:59:56","64.7","46.3","51.3","29.85","317","5.3","14.4","0.04","0.00"
"20:04:58","64.6","46.8","52.4","29.85","316","4.1","15","0.04","0.00"
"20:09:57","64.3","46.8","53","29.85","313","3.6","8.4","0.04","0.00"
"20:14:59","64","47.1","54.1","29.85","340","2.2","6.9","0.04","0.00"
"20:19:58","63.6","46.9","54.5","29.85","317","4.4","10.8","0.04","0.00"
"20:24:58","63.4","46.9","55","29.85","294","4.6","9.6","0.04","0.00"
"20:29:58","63.1","47","55.6","29.86","317","3.6","8.4","0.04","0.00"
"20:34:58","62.9","47.1","56.3","29.86","273","3.3","8.4","0.04","0.00"
"20:39:59","62.6","47","56.7","29.86","328","3.8","13.2","0.04","0.00"
"20:44:59","62.3","46.8","56.8","29.87","305","2.2","6","0.04","0.00"
"20:49:59","62","46.9","57.7","29.87","300","2.1","4.8","0.04","0.00"
"20:54:59","61.8","46.8","57.8","29.87","329","3.7","12","0.04","0.00"
"20:59:59","61.7","47","58.3","29.88","313","2.3","10.4","0.04","0.00"
"21:04:58","61.5","47","59","29.88","305","2.4","12","0.04","0.00"
"21:09:57","61.2","46.8","59.2","29.88","312","3.2","7.2","0.04","0.00"
"21:14:59","61","46.9","59.8","29.88","273","1.7","5.8","0.04","0.00"
"21:19:58","60.8","46.6","59.7","29.88","310","2","4.8","0.04","0.00"
"21:24:58","60.6","46.6","60","29.88","339","2.1","7.2","0.04","0.00"
"21:29:58","60.5","46.6","60.3","29.90","328","2.4","7.2","0.04","0.00"
"21:34:58","60.5","46.7","60.4","29.90","315","2.8","10.8","0.04","0.00"
"21:39:56","60.7","46.7","60","29.90","299","3.4","10.8","0.04","0.00"
"21:44:56","60.9","46.9","60","29.90","292","3.1","8.4","0.04","0.00"
"21:49:59","61","47","60","29.90","311","3.5","8.1","0.04","0.00"
"21:54:59","60.9","46.8","59.8","29.90","309","5.6","19.6","0.04","0.00"
"21:59:59","60.9","46.9","60","29.90","309","4.2","11.5","0.04","0.00"
"22:04:57","60.8","46.8","60","29.90","331","5.9","16.1","0.04","0.00"
"22:09:56","60.8","46.9","60.2","29.90","302","5.6","16.1","0.04","0.00"
"22:14:58","60.8","47","60.3","29.90","308","5.8","15","0.04","0.00"
"22:19:57","60.8","47","60.4","29.90","308","6","15","0.04","0.00"
"22:24:57","60.8","47.2","60.8","29.90","297","6.7","19.6","0.04","0.00"
"22:29:57","60.9","47.3","60.8","29.91","331","8.7","20.7","0.04","0.00"
"22:34:57","60.9","47.3","60.9","29.91","313","7.2","21.9","0.04","0.00"
"22:39:58","60.8","47.3","61","29.91","321","6.9","16.8","0.04","0.00"
"22:44:58","60.7","47.4","61.5","29.91","329","6.1","18","0.04","0.00"
"22:49:58","60.5","47.4","62","29.91","294","3.9","18.4","0.04","0.00"
"22:54:58","60.2","47.4","62.6","29.91","315","5","13.2","0.04","0.00"
"22:59:58","60","47.4","63.2","29.93","338","7","17.3","0.04","0.00"
"23:04:56","59.8","47.6","63.9","29.93","334","4.1","18","0.04","0.00"
"23:09:59","59.7","47.5","64","29.93","342","5.6","18.4","0.04","0.00"
"23:14:56","59.5","47.7","65","29.94","348","6.2","18","0.04","0.00"
"23:19:56","59.4","47.6","65","29.94","332","6.7","19.2","0.04","0.00"
"23:24:56","59.3","47.5","65","29.94","328","5.5","19.6","0.04","0.00"
"23:29:56","59.1","47.5","65.5","29.94","322","3.3","12","0.04","0.00"
"23:34:56","58.9","47.3","65.3","29.94","354","4.5","11.5","0.04","0.00"
"23:39:58","58.7","47.3","65.7","29.94","335","3.9","14.4","0.04","0.00"
"23:44:57","58.6","47.3","66","29.95","347","3.8","15","0.04","0.00"
"23:49:57","58.4","47.1","66","29.95","326","2.8","12","0.04","0.00"
"23:54:57","58.3","47.1","66.3","29.95","315","3.9","16.1","0.04","0.00"
